Total_Precipitation_Accumulation
2.83 2.72 4.10 4.41 3.83 3.02 2.84 2.73 2.49 2.34 2.36 2.39 2.21 2.16 2.10 2.04 1.83 1.75 1.60 1.47 1.43 1.44 1.51 1.51 1.58 1.65 1.62 1.50 1.41 1.68 1.78 1.75 1.78 1.76 1.87 2.08 2.27 2.45 2.65 2.89 3.09 3.31 3.16
2.30 2.32 3.80 4.16 3.59 2.92 2.57 2.45 2.38 2.29 2.39 2.36 2.32 2.19 2.13 1.98 1.85 1.79 1.56 1.50 1.50 1.49 1.44 1.48 1.58 1.53 1.48 1.51 1.50 1.66 1.71 1.57 1.51 1.68 2.00 2.29 2.38 2.48 2.59 2.65 2.96 3.22 3.03
1.80 1.95 2.93 3.78 3.43 2.94 2.51 2.27 2.29 2.31 2.45 2.48 2.47 2.29 2.13 1.98 1.91 1.77 1.65 1.72 1.66 1.53 1.43 1.37 1.52 1.59 1.54 1.68 1.65 1.68 1.61 1.53 1.54 1.80 2.42 3.18 2.84 2.56 2.59 2.58 2.79 2.72 2.73
1.64 1.79 2.22 3.11 3.01 2.57 2.33 2.27 2.39 2.42 2.55 2.54 2.42 2.24 2.09 2.04 1.98 1.82 1.78 1.91 1.72 1.63 1.50 1.43 1.56 1.70 1.62 1.68 1.66 1.62 1.53 1.59 1.77 1.88 2.37 3.06 3.20 2.74 2.67 2.77 2.73 2.66 2.78
1.59 1.77 2.42 3.10 2.85 2.49 2.28 2.45 2.65 2.65 2.64 2.47 2.28 2.11 2.07 2.08 2.03 1.96 2.00 2.08 1.84 1.72 1.56 1.46 1.56 1.61 1.57 1.59 1.57 1.57 1.57 1.78 2.02 1.89 2.24 2.79 3.38 3.21 2.67 2.67 2.71 2.73 2.97
1.62 1.81 2.38 3.03 2.80 2.53 2.34 2.60 2.72 2.74 2.81 2.68 2.40 2.16 2.07 2.00 1.98 1.96 2.03 1.96 1.90 1.85 1.63 1.51 1.57 1.62 1.60 1.59 1.61 1.60 1.70 1.86 1.85 1.93 2.29 2.75 3.22 3.23 2.74 2.58 2.70 2.97 3.04
1.48 1.55 1.88 2.67 2.77 2.56 2.45 2.70 2.80 2.85 3.02 2.92 2.63 2.43 2.19 2.02 2.00 2.00 2.06 1.92 1.87 1.88 1.86 1.75 1.69 1.68 1.67 1.69 1.62 1.49 1.45 1.45 1.43 1.71 2.00 2.69 3.04 3.06 2.91 2.71 2.67 2.78 2.94
1.54 1.48 1.55 2.31 2.62 2.58 2.60 2.69 2.67 2.68 2.78 2.80 2.55 2.35 2.12 1.99 1.98 2.11 2.20 2.03 1.99 1.85 1.76 1.82 1.84 1.85 1.89 1.88 1.78 1.62 1.45 1.16 1.09 1.35 1.80 2.51 3.03 3.01 2.85 2.87 2.89 2.85 3.07
1.69 1.63 1.56 1.76 2.13 2.47 2.54 2.45 2.45 2.43 2.42 2.52 2.38 2.25 2.07 1.99 1.98 2.09 2.14 2.06 2.08 2.06 2.01 2.09 2.23 2.19 2.12 2.17 1.98 1.78 1.56 1.22 1.18 1.38 1.49 2.38 3.01 3.01 2.77 2.74 2.92 3.10 3.15
1.90 1.75 1.57 1.55 1.62 1.73 1.98 2.18 2.35 2.40 2.35 2.41 2.21 2.02 1.90 1.87 1.91 2.06 2.06 2.04 2.17 2.23 2.28 2.46 2.62 2.54 2.63 2.56 2.13 1.75 1.48 1.21 1.25 1.31 1.65 2.28 3.02 3.16 2.96 2.72 2.64 2.66 2.75
1.74 1.60 1.61 1.59 1.59 1.66 1.64 1.72 2.04 2.18 2.22 2.08 1.99 1.86 1.71 1.47 1.42 1.63 1.78 2.22 2.53 2.73 2.66 2.66 2.55 2.41 2.31 2.16 1.86 1.50 1.24 1.16 1.23 1.35 1.81 2.47 3.15 3.38 3.09 2.69 2.50 2.41 2.44
1.53 1.44 1.44 1.43 1.53 1.59 1.45 1.67 1.98 1.80 1.70 1.47 1.48 1.35 1.43 1.38 1.35 1.18 1.40 1.97 2.27 2.38 2.40 2.40 2.33 2.07 1.75 1.40 1.34 1.21 1.06 1.00 1.00 1.18 1.83 2.62 3.03 3.34 3.18 2.86 2.72 2.60 2.57
1.30 1.27 1.15 1.17 1.20 1.35 1.51 1.76 2.04 2.09 1.89 1.66 1.40 1.33 1.38 1.31 1.23 1.12 1.14 1.32 1.49 1.56 1.46 1.50 1.53 1.40 1.32 1.22 1.20 1.07 1.02 0.96 1.01 1.20 1.95 2.65 2.98 3.15 3.20 3.10 3.05 3.02 2.91
1.09 1.19 0.98 0.87 0.99 1.15 1.24 1.37 1.64 1.71 1.62 1.52 1.32 1.22 1.31 1.35 1.24 1.20 1.20 1.25 1.26 1.23 1.27 1.28 1.37 1.34 1.18 1.08 1.08 1.13 1.11 1.08 1.18 1.43 2.03 2.58 2.98 3.25 3.24 3.24 3.31 3.26 3.30
1.11 1.13 1.02 0.88 0.85 0.90 0.96 1.06 1.19 1.34 1.41 1.43 1.41 1.21 1.21 1.34 1.31 1.29 1.23 1.28 1.16 1.06 1.12 1.21 1.27 1.33 1.24 1.10 1.05 1.07 1.17 1.11 1.16 1.36 1.76 2.31 2.84 3.32 3.55 3.45 3.34 3.24 3.22
1.12 1.15 1.07 0.95 0.92 0.93 0.89 0.87 0.87 1.00 1.16 1.27 1.30 1.21 1.23 1.33 1.34 1.39 1.34 1.27 1.20 1.10 1.12 1.30 1.29 1.32 1.31 1.25 1.10 1.12 1.16 1.11 1.12 1.18 1.36 1.80 2.23 2.74 3.36 3.74 3.59 3.37 3.17
1.15 1.16 1.13 1.07 1.07 1.06 0.99 0.94 0.81 0.85 0.93 1.07 1.22 1.22 1.28 1.24 1.18 1.26 1.28 1.22 1.19 1.19 1.21 1.27 1.32 1.40 1.33 1.24 1.20 1.18 1.17 1.12 1.07 1.12 1.07 1.23 1.41 1.93 2.60 3.13 3.43 3.45 3.32
1.05 1.19 1.27 1.17 1.18 1.18 1.17 1.13 1.04 1.04 1.11 1.19 1.36 1.33 1.27 1.30 1.26 1.26 1.29 1.27 1.29 1.32 1.31 1.35 1.43 1.44 1.41 1.39 1.34 1.30 1.18 1.16 1.11 1.10 1.04 1.04 1.13 1.22 1.59 2.04 2.52 2.94 3.18
0.96 1.06 1.19 1.29 1.34 1.31 1.30 1.37 1.43 1.44 1.43 1.45 1.53 1.44 1.31 1.31 1.36 1.47 1.49 1.49 1.44 1.47 1.47 1.42 1.45 1.38 1.39 1.40 1.32 1.34 1.29 1.25 1.19 1.06 1.08 1.05 1.07 1.05 1.19 1.35 1.61 1.93 2.33
0.88 0.95 1.09 1.23 1.46 1.52 1.50 1.47 1.61 1.63 1.67 1.75 1.81 1.63 1.50 1.52 1.61 1.79 1.85 1.75 1.72 1.71 1.70 1.63 1.68 1.58 1.46 1.49 1.37 1.35 1.32 1.24 1.27 1.24 1.21 1.14 1.18 1.13 1.13 1.15 1.24 1.23 1.46
0.73 0.79 0.92 1.06 1.26 1.36 1.40 1.51 1.71 1.87 2.00 2.08 2.12 1.96 1.84 1.80 1.93 2.07 1.98 2.06 2.06 1.93 1.92 1.98 2.03 1.99 1.80 1.65 1.71 1.60 1.35 1.17 1.25 1.22 1.23 1.28 1.28 1.36 1.37 1.26 1.24 1.24 1.19
0.48 0.54 0.66 0.82 0.93 1.08 1.28 1.55 1.76 2.02 2.06 2.12 2.16 2.17 2.08 2.01 2.14 2.17 2.24 2.33 2.35 2.36 2.29 2.18 2.30 2.46 2.19 1.94 2.07 2.35 1.96 1.62 1.27 1.04 1.16 1.25 1.31 1.54 1.57 1.36 1.19 1.17 1.23
0.40 0.43 0.53 0.68 0.84 1.08 1.33 1.69 1.99 2.27 2.37 2.42 2.37 2.38 2.36 2.34 2.36 2.38 2.43 2.49 2.50 2.36 2.36 2.47 2.60 2.95 2.75 2.37 2.17 2.47 2.32 2.02 1.71 1.27 1.15 1.25 1.35 1.49 1.58 1.61 1.49 1.38 1.31
0.36 0.44 0.58 0.78 1.02 1.31 1.63 1.99 2.27 2.57 2.73 2.57 2.55 2.54 2.49 2.37 2.35 2.43 2.42 2.40 2.36 2.31 2.39 2.46 2.52 2.95 3.17 2.88 2.51 2.10 1.88 1.86 1.99 1.73 1.29 1.24 1.35 1.37 1.47 1.54 1.49 1.57 1.51
0.49 0.59 0.78 1.06 1.37 1.67 1.94 2.11 2.36 2.50 2.52 2.48 2.43 2.42 2.32 2.28 2.25 2.25 2.23 2.31 2.31 2.33 2.40 2.58 2.71 2.99 3.05 3.06 2.86 2.61 2.37 2.06 1.75 1.85 1.81 1.54 1.47 1.37 1.44 1.56 1.58 1.69 1.72
0.69 0.86 1.06 1.24 1.54 1.73 1.90 2.03 2.19 2.33 2.37 2.35 2.33 2.37 2.35 2.30 2.20 2.11 2.05 2.11 2.23 2.36 2.41 2.51 2.68 2.96 3.10 3.20 3.10 2.80 2.69 2.54 2.27 2.16 1.93 1.79 1.75 1.50 1.45 1.50 1.53 1.67 1.84